This is the latest recevied weather packets stored in our database for station/object KW4UJ. If no packets are shown the sender has not sent any weather packets the latest 10 day(s).
| Time | Temp. | Humidity | Pressure | Rain* | Wind** | Luminosity | Snow |
|---|---|---|---|---|---|---|---|
| 1777574038 | 20° C | 39% | 1008 hPa | 0 mm | - | 116 W/m² | - |
| 1777573733 | 20° C | 40% | 1008.1 hPa | 0 mm | - | 667 W/m² | - |
| 1777573430 | 19.44° C | 40% | 1008.3 hPa | 0 mm | - | 676 W/m² | - |
| 1777573125 | 19.44° C | 40% | 1008.4 hPa | 0 mm | - | 524 W/m² | - |
| 1777572822 | 19.44° C | 40% | 1008.2 hPa | 0 mm | - | 705 W/m² | - |
| 1777572518 | 19.44° C | 41% | 1008.4 hPa | 0 mm | - | 189 W/m² | - |
| 1777572213 | 19.44° C | 42% | 1008.5 hPa | 0 mm | - | 709 W/m² | - |
| 1777571910 | 19.44° C | 40% | 1008.4 hPa | 0 mm | - | 191 W/m² | - |
| 1777571604 | 19.44° C | 42% | 1008.3 hPa | 0 mm | - | 769 W/m² | - |
| 1777571302 | 19.44° C | 41% | 1008.1 hPa | 0 mm | - | 709 W/m² | - |
| 1777570998 | 19.44° C | 42% | 1008.1 hPa | 0 mm | - | 771 W/m² | - |
| 1777570694 | 19.44° C | 42% | 1008.2 hPa | 0 mm | - | 708 W/m² | - |
| 1777570391 | 18.89° C | 43% | 1008.3 hPa | 0 mm | - | 703 W/m² | - |
| 1777570086 | 19.44° C | 43% | 1008.4 hPa | 0 mm | - | 786 W/m² | - |
| 1777569783 | 19.44° C | 42% | 1008.3 hPa | 0 mm | - | 827 W/m² | - |
| 1777569478 | 20° C | 41% | 1008.4 hPa | 0 mm | - | 817 W/m² | - |
| 1777569175 | 19.44° C | 42% | 1008.5 hPa | 0 mm | - | 810 W/m² | - |
| 1777568871 | 19.44° C | 42% | 1008.7 hPa | 0 mm | - | 773 W/m² | - |
| 1777568569 | 19.44° C | 41% | 1008.5 hPa | 0 mm | - | 741 W/m² | - |
| 1777568265 | 18.89° C | 42% | 1008.5 hPa | 0 mm | - | 708 W/m² | - |
| 1777567962 | 18.89° C | 43% | 1008.7 hPa | 0 mm | - | 751 W/m² | - |
| 1777567658 | 18.89° C | 44% | 1008.7 hPa | 0 mm | - | 717 W/m² | - |
| 1777567356 | 18.89° C | 45% | 1008.5 hPa | 0 mm | - | 691 W/m² | - |
| 1777567054 | 18.33° C | 48% | 1008.5 hPa | 0 mm | - | 165 W/m² | - |
| 1777566752 | 18.33° C | 46% | 1008.8 hPa | 0 mm | - | 732 W/m² | - |
* Rain latest hour (hover to see other rain measurements)
** Current wind speed in m/s (hover to see current wind gust speed)